Regional Weather Roundup
Issued by NWS Goodland, KS

Home | Current Version | Previous Version | Graphics & Text | Print | Product List | Glossary On
Versions: 1 2 3 4 5 6 7 8 9 10 11 12 13 14 15 16 17 18 19 20 21 22 23 24 25 26 27 28 29 30 31 32 33 34 35 36 37 38 39 40 41 42 43 44 45 46 47 48 49 50
853
ASUS43 KGLD 270359
RWRGLD

GOODLAND FORECAST AREA HOURLY WEATHER ROUNDUP
NATIONAL WEATHER SERVICE GOODLAND KS
1000 PM MDT MON SEP 26 2016

...OFFICIAL OBSERVATIONS...

CITY           SKY/WX    TMP DP  RH WIND       PRES   REMARKS
GOODLAND KS    CLEAR     53  41  63 CALM      30.24S
HILL CITY KS   CLEAR     52  47  83 W5        30.17F
IMPERIAL NEB   CLEAR     54  41  61 W6        30.22S
MCCOOK NEB     CLEAR     53  46  77 W6        30.18S
AKRON CO       CLEAR     56  36  47 SE3       30.30S
BURLINGTON CO  CLEAR     60  36  40 NE3       30.28R
LIMON CO       CLEAR     45  29  53 NW3       30.34R
$$

...UNOFFICIAL OBSERVATIONS...

CITY           SKY/WX    TMP DP  RH WIND       PRES   REMARKS
COLBY KS       CLEAR     52  43  71 SW3       30.23S
LENORA KS        N/A     63  32  31 MISG        N/A
NORTON KS      CLEAR     54  39  58 SW7       30.16
SHARON SPRINGS   N/A     58  38  48 CALM        N/A
KIT CARSON CO    N/A     56  40  55 CALM        N/A
$$




USA.gov is the U.S. government's official web portal to all federal, state and local government web resources and services.